ANA38 RJOO-RJTT

Flight info

Callsign ANA38
Flight time N/A
Altitude 27000
Route ASUKA SHTLE Y71 XAC
Aircraft B772/H-SDE2E3FGHIJ5LORVWXY/LB1D1

Departure

Time 2026-04-30 22:39
Airport Osaka Itami International Airport (RJOO)

Arrival

Time N/A
Airport Tokyo Haneda International Airport (RJTT)
Time Latitude Longitude Altitude Speed Heading
2026-04-30 22:17 34.78813 135.44280 54 ft 0 kts 68°
2026-04-30 22:34 34.78773 135.44205 46 ft 12 kts 264°
2026-04-30 22:35 34.78675 135.44086 48 ft 12 kts 152°
2026-04-30 22:36 34.78609 135.43978 48 ft 16 kts 315°
2026-04-30 22:36 34.78688 135.43882 49 ft 16 kts 315°
2026-04-30 22:37 34.79011 135.43491 48 ft 28 kts 315°
2026-04-30 22:37 34.79148 135.43325 52 ft 28 kts 315°
2026-04-30 22:37 34.79269 135.43018 49 ft 19 kts 228°
2026-04-30 22:38 34.79129 135.42902 52 ft 7 kts 191°
2026-04-30 22:38 34.79004 135.43026 50 ft 36 kts 134°
2026-04-30 22:39 34.78634 135.43475 49 ft 115 kts 135°
2026-04-30 22:39 34.76868 135.46451 1814 ft 155 kts 85°
2026-04-30 22:40 34.78564 135.50795 2566 ft 230 kts 71°
2026-04-30 22:41 34.78810 135.57183 4213 ft 269 kts 97°
2026-04-30 22:41 34.78529 135.61839 5627 ft 282 kts 96°
2026-04-30 22:42 34.78057 135.71633 8512 ft 300 kts 95°
2026-04-30 22:43 34.77835 135.76784 9968 ft 308 kts 95°
2026-04-30 22:43 34.77596 135.82308 10682 ft 353 kts 95°
2026-04-30 22:44 34.77333 135.88495 12078 ft 378 kts 95°
2026-04-30 22:45 34.76761 136.01773 15492 ft 409 kts 96°
2026-04-30 22:45 34.76883 136.08848 16985 ft 428 kts 86°
2026-04-30 22:46 34.77518 136.16118 18444 ft 442 kts 85°
2026-04-30 22:47 34.78747 136.31374 21214 ft 464 kts 87°
2026-04-30 22:47 34.79304 136.39250 22525 ft 475 kts 88°
2026-04-30 22:48 34.79871 136.47371 23843 ft 485 kts 88°
2026-04-30 22:49 34.80732 136.59762 25781 ft 495 kts 88°
2026-04-30 22:49 34.81600 136.72466 26723 ft 513 kts 88°
2026-04-30 22:50 34.82769 136.89796 26717 ft 513 kts 88°
2026-04-30 22:51 34.82989 136.98437 26715 ft 506 kts 99°
2026-04-30 22:51 34.81992 137.06903 26723 ft 506 kts 104°
2026-04-30 22:52 34.81417 137.11086 26724 ft 508 kts 103°
2026-04-30 22:52 34.80333 137.19616 26702 ft 511 kts 102°
2026-04-30 22:53 34.79349 137.28222 26715 ft 512 kts 102°
2026-04-30 22:53 34.78391 137.36814 26703 ft 512 kts 102°
2026-04-30 22:53 34.77910 137.41085 26709 ft 511 kts 102°
2026-04-30 22:54 34.76937 137.49613 26721 ft 510 kts 102°
2026-04-30 22:55 34.75457 137.62431 26740 ft 510 kts 102°
2026-04-30 22:55 34.74483 137.70992 26735 ft 511 kts 101°
2026-04-30 22:56 34.73661 137.79599 26758 ft 512 kts 100°
2026-04-30 22:56 34.72445 137.92476 26780 ft 513 kts 100°
2026-04-30 22:57 34.71601 138.01088 26800 ft 514 kts 99°
2026-04-30 22:57 34.71328 138.09811 26802 ft 517 kts 91°
2026-04-30 22:58 34.71430 138.18566 26801 ft 517 kts 91°
2026-04-30 22:59 34.71535 138.31631 26799 ft 517 kts 91°
2026-04-30 22:59 34.71569 138.44763 26795 ft 517 kts 92°